Weather History for Beatrice, NE

Change the Weather History Date:

Tuesday, May 1, 2012

  Actual Average Record
Temperature  
Mean Temperature 70 °F -  
Max Temperature 82 °F 68 °F 93 °F (1959)
Min Temperature 59 °F 43 °F 31 °F (1966)
Cooling Degree Days 6    
Growing Degree Days 20 (Base 50)    
Moisture  
Dew Point 62 °F    
Average Humidity 76    
Maximum Humidity 100    
Minimum Humidity 51    
Precipitation  
Precipitation 0.00 in - - ()
Sea Level Pressure  
Sea Level Pressure 29.68 in    
Wind  
Wind Speed 12 mph (South)    
Max Wind Speed 24 mph    
Max Gust Speed 32 mph    
Visibility 8 miles    
Events Thunderstorm    
Averages and records for this station are not official NWS values.
T = Trace of Precipitation, MM = Missing Value Source: NWS Daily Summary

Daily Weather History Graph

Daily Weather History Graph

Search for Another Location

Airport:

Trip Planner

Search our weather history database for the weather conditions in past years. The results will help you decide how hot, cold, wet, or windy it might be!

Date:

Astronomy

May. 01, 2012 Rise Set
Actual Time 6:25 AM CDT 8:22 PM CDT
Civil Twilight 5:56 AM CDT 8:52 PM CDT
Nautical Twilight 5:20 AM CDT 9:28 PM CDT
Astronomical Twilight 4:41 AM CDT 10:07 PM CDT
Moon 3:27 PM CDT (5/1) 3:24 AM CDT (5/1)
Length of Visible Light 14h 56m
Length of Day
13h 57m
Waxing Gibbous, 74% of the Moon is Illuminated
May 1
Waxing Gibbous
May 5
Full
May 12
Last Quarter
May 20
New
May 28
First Quarter

Hourly Weather History & Observations

Time (CDT) Temp. Heat Index Dew Point Humidity Pressure Visibility Wind Dir Wind Speed Gust Speed Precip Events Conditions
12:15 AM 61.7 °F - 59.0 °F 91% 29.81 in 10.0 mi SE 8.1 mph - N/A   Mostly Cloudy
12:35 AM 61.7 °F - 59.0 °F 91% 29.81 in 7.0 mi SE 10.4 mph - N/A   Scattered Clouds
12:55 AM 61.7 °F - 59.0 °F 91% 29.80 in 7.0 mi SE 9.2 mph - N/A   Scattered Clouds
1:15 AM 61.3 °F - 59.2 °F 93% 29.78 in 7.0 mi SE 10.4 mph 16.1 mph N/A   Clear
1:35 AM 61.3 °F - 59.2 °F 93% 29.78 in 7.0 mi SE 12.7 mph 17.3 mph N/A   Clear
1:55 AM 60.8 °F - 59.0 °F 94% 29.78 in 7.0 mi SE 10.4 mph 18.4 mph N/A   Clear
2:15 AM 61.3 °F - 59.5 °F 94% 29.78 in 7.0 mi SE 11.5 mph - N/A   Clear
2:35 AM 61.7 °F - 59.9 °F 94% 29.78 in 7.0 mi SSE 13.8 mph - N/A   Clear
2:55 AM 61.3 °F - 59.9 °F 95% 29.78 in 7.0 mi SSE 10.4 mph - N/A   Clear
3:15 AM 60.8 °F - 60.8 °F 100% 29.77 in 7.0 mi SSE 12.7 mph 19.6 mph N/A   Clear
3:35 AM 61.0 °F - 59.9 °F 96% 29.77 in 5.0 mi SSE 9.2 mph - N/A   Clear
3:55 AM 61.0 °F - 59.9 °F 96% 29.77 in 5.0 mi SSE 10.4 mph - N/A   Clear
4:15 AM 61.2 °F - 60.1 °F 96% 29.78 in 5.0 mi SSE 9.2 mph - N/A   Clear
4:35 AM 61.2 °F - 60.1 °F 96% 29.78 in 5.0 mi SSE 9.2 mph - N/A   Clear
4:55 AM 61.2 °F - 60.1 °F 96% 29.78 in 5.0 mi SSE 8.1 mph - N/A   Clear
5:15 AM 61.0 °F - 59.9 °F 96% 29.77 in 5.0 mi SSE 4.6 mph - N/A   Clear
5:35 AM 60.6 °F - 59.5 °F 96% 29.76 in 5.0 mi SSE 5.8 mph - N/A   Clear
5:55 AM 60.1 °F - 59.2 °F 97% 29.76 in 4.0 mi SE 6.9 mph - N/A   Clear
6:15 AM 59.9 °F - 59.2 °F 97% 29.76 in 4.0 mi SSE 6.9 mph - N/A   Clear
6:35 AM 59.9 °F - 59.9 °F 100% 29.76 in 3.0 mi SSE 10.4 mph - N/A   Mostly Cloudy
6:55 AM 60.3 °F - 60.1 °F 99% 29.76 in 3.0 mi SSE 8.1 mph - N/A   Overcast
7:15 AM 60.8 °F - 60.6 °F 99% 29.76 in 4.0 mi SSE 6.9 mph - N/A   Mostly Cloudy
7:35 AM 60.8 °F - 60.8 °F 100% 29.75 in 4.0 mi SSE 6.9 mph - N/A   Overcast
7:55 AM 61.5 °F - 61.2 °F 99% 29.75 in 5.0 mi SSE 5.8 mph - N/A   Mostly Cloudy
8:15 AM 62.6 °F - 61.7 °F 97% 29.75 in 10.0 mi South 6.9 mph - N/A   Scattered Clouds
8:35 AM 64.4 °F - 61.7 °F 91% 29.74 in 10.0 mi SSE 10.4 mph - N/A   Clear
8:55 AM 66.2 °F - 62.6 °F 88% 29.75 in 10.0 mi South 11.5 mph - N/A   Clear
9:15 AM 66.2 °F - 60.8 °F 83% 29.75 in 10.0 mi South 13.8 mph 18.4 mph N/A   Mostly Cloudy
9:35 AM 66.0 °F - 61.2 °F 84% 29.75 in 10.0 mi South 13.8 mph - N/A   Overcast
9:55 AM 68.2 °F - 61.9 °F 80% 29.74 in 10.0 mi South 12.7 mph - N/A   Mostly Cloudy
10:15 AM 67.5 °F - 61.7 °F 82% 29.74 in 10.0 mi South 12.7 mph - N/A   Mostly Cloudy
10:35 AM 69.8 °F - 62.8 °F 78% 29.73 in 10.0 mi South 16.1 mph 20.7 mph N/A   Mostly Cloudy
10:55 AM 71.2 °F - 63.0 °F 75% 29.72 in 10.0 mi South 16.1 mph 25.3 mph N/A   Scattered Clouds
11:15 AM 73.0 °F - 63.1 °F 71% 29.71 in 10.0 mi SSW 17.3 mph 23.0 mph N/A   Clear
11:35 AM 75.0 °F - 63.1 °F 66% 29.70 in 10.0 mi SSW 19.6 mph 25.3 mph N/A   Clear
11:55 AM 77.0 °F - 63.1 °F 62% 29.69 in 10.0 mi SSE 19.6 mph 25.3 mph N/A   Clear
12:15 PM 77.4 °F - 61.5 °F 58% 29.69 in 10.0 mi South 17.3 mph 24.2 mph N/A   Clear
12:35 PM 78.8 °F - 61.9 °F 56% 29.68 in 10.0 mi SSW 20.7 mph 26.5 mph N/A   Clear
12:55 PM 79.5 °F - 62.1 °F 55% 29.67 in 10.0 mi SSW 15.0 mph 26.5 mph N/A   Clear
1:15 PM 79.7 °F - 61.9 °F 54% 29.65 in 10.0 mi South 18.4 mph 27.6 mph N/A   Clear
1:35 PM 79.5 °F - 61.9 °F 55% 29.64 in 10.0 mi South 18.4 mph 26.5 mph N/A   Clear
1:55 PM 80.1 °F 81.2 °F 62.1 °F 54% 29.64 in 10.0 mi South 20.7 mph 27.6 mph N/A   Clear
2:15 PM 81.0 °F 82.1 °F 62.4 °F 53% 29.63 in 10.0 mi South 17.3 mph 23.0 mph N/A   Clear
2:35 PM 81.5 °F 82.7 °F 63.0 °F 53% 29.62 in 10.0 mi South 17.3 mph 24.2 mph N/A   Clear
2:55 PM 82.4 °F 83.4 °F 62.6 °F 51% 29.61 in 10.0 mi South 20.7 mph 25.3 mph N/A   Scattered Clouds
3:15 PM 81.7 °F 83.0 °F 63.5 °F 54% 29.61 in 10.0 mi South 17.3 mph 32.2 mph N/A   Mostly Cloudy
3:35 PM 80.4 °F 81.8 °F 63.5 °F 56% 29.61 in 10.0 mi South 19.6 mph 27.6 mph N/A   Overcast
3:55 PM 80.6 °F 82.0 °F 63.5 °F 56% 29.60 in 10.0 mi SSW 19.6 mph 27.6 mph N/A   Mostly Cloudy
4:15 PM 82.8 °F 84.5 °F 64.9 °F 55% 29.59 in 10.0 mi South 20.7 mph 26.5 mph N/A   Mostly Cloudy
4:35 PM 81.7 °F 83.2 °F 64.2 °F 55% 29.59 in 10.0 mi South 20.7 mph 27.6 mph N/A   Mostly Cloudy
4:55 PM 81.0 °F 82.3 °F 63.3 °F 55% 29.59 in 10.0 mi South 21.9 mph 27.6 mph N/A   Mostly Cloudy
5:15 PM 81.1 °F 82.3 °F 62.8 °F 53% 29.58 in 10.0 mi South 20.7 mph 28.8 mph N/A   Scattered Clouds
5:35 PM 81.5 °F 82.7 °F 63.0 °F 53% 29.58 in 10.0 mi SSW 24.2 mph 32.2 mph N/A   Clear
5:55 PM 82.4 °F 83.4 °F 62.6 °F 51% 29.58 in 10.0 mi SSW 19.6 mph 31.1 mph N/A   Clear
6:15 PM 81.5 °F 82.8 °F 63.1 °F 54% 29.57 in 10.0 mi South 23.0 mph 31.1 mph N/A   Clear
6:35 PM 80.6 °F 81.8 °F 62.6 °F 54% 29.58 in 10.0 mi South 17.3 mph 29.9 mph N/A   Scattered Clouds
6:55 PM 80.8 °F 82.1 °F 63.3 °F 55% 29.58 in 10.0 mi South 18.4 mph 25.3 mph N/A   Scattered Clouds
7:15 PM 80.1 °F 81.7 °F 63.9 °F 58% 29.58 in 10.0 mi South 15.0 mph 19.6 mph N/A   Scattered Clouds
7:35 PM 79.3 °F - 63.9 °F 59% 29.59 in 10.0 mi SSW 12.7 mph 20.7 mph N/A   Scattered Clouds
7:55 PM 78.8 °F - 64.4 °F 61% 29.59 in 10.0 mi South 13.8 mph - N/A   Clear
8:15 PM 78.3 °F - 64.8 °F 63% 29.59 in 10.0 mi South 15.0 mph 20.7 mph N/A   Clear
8:35 PM 77.5 °F - 64.9 °F 65% 29.60 in 10.0 mi South 13.8 mph 18.4 mph N/A   Clear
8:55 PM 77.0 °F - 65.3 °F 67% 29.60 in 10.0 mi South 12.7 mph 17.3 mph N/A   Clear
9:15 PM 77.0 °F - 65.3 °F 67% 29.60 in 10.0 mi South 11.5 mph - N/A   Clear
9:35 PM 76.5 °F - 65.5 °F 69% 29.61 in 10.0 mi South 11.5 mph - N/A   Clear
9:55 PM 75.7 °F - 66.0 °F 72% 29.61 in 10.0 mi South 15.0 mph 18.4 mph N/A   Clear
10:15 PM 75.2 °F - 66.6 °F 74% 29.60 in 10.0 mi South 13.8 mph - N/A   Clear
10:35 PM 75.2 °F - 67.1 °F 76% 29.60 in 10.0 mi South 12.7 mph - N/A   Clear
10:55 PM 75.2 °F - 67.5 °F 77% 29.61 in 10.0 mi South 16.1 mph 21.9 mph N/A   Clear
11:15 PM 75.2 °F - 67.6 °F 77% 29.61 in 10.0 mi South 13.8 mph 21.9 mph N/A   Clear
11:35 PM 74.7 °F - 68.0 °F 80% 29.61 in 10.0 mi South 15.0 mph 20.7 mph N/A   Clear
11:55 PM 74.3 °F - 68.2 °F 81% 29.61 in 10.0 mi South 11.5 mph - N/A Thunderstorm Clear